KG6SIB Weather Reports


Display with metric or nautical units.
time (UTC)temp
F
wind
direction
speed
MPH
gust
MPH
rain 1hr
in
rain 24hr
in
rain mn
in
humidity
%
barometer
mb
20260510065123 50 34 4.0 8.0 0.00 0.00 0.00 40 1015.7
20260510064623 50 54 6.0 8.0 0.00 0.00 0.00 41 1015.6
20260510064124 50 24 5.0 8.0 0.00 0.00 0.00 42 1015.7
20260510063623 50 24 4.0 8.0 0.00 0.00 0.00 42 1015.7
20260510063123 50 57 4.0 9.0 0.00 0.00 0.00 44 1015.7
20260510062653 50 52 5.0 9.0 0.00 0.00 0.00 44 1015.7
20260510062153 50 61 3.0 9.0 0.00 0.00 0.00 45 1015.6
20260510061653 50 67 4.0 8.0 0.00 0.00 0.00 46 1015.6
20260510061153 50 74 5.0 8.0 0.00 0.00 0.00 46 1015.5
20260510060653 51 49 4.0 10.0 0.00 0.00 0.00 46 1015.8
20260510060153 51 74 5.0 10.0 0.00 0.00 0.00 46 1015.8
20260510055653 51 65 4.0 9.0 0.00 0.00 0.00 47 1015.6
20260510055153 51 33 4.0 8.0 0.00 0.00 0.00 46 1015.6
20260510054653 51 73 4.0 8.0 0.00 0.00 0.00 46 1015.6
20260510054153 51 95 6.0 8.0 0.00 0.00 0.00 46 1015.6
20260510053652 51 103 6.0 8.0 0.00 0.00 0.00 47 1015.7
20260510053153 51 78 2.0 9.0 0.00 0.00 0.00 47 1015.5
20260510052652 51 63 5.0 9.0 0.00 0.00 0.00 48 1015.6
20260510052153 51 22 6.0 9.0 0.00 0.00 0.00 47 1015.5
20260510051153 51 76 7.0 8.0 0.00 0.00 0.00 45 1015.5
20260510050653 51 52 5.0 8.0 0.00 0.00 0.00 48 1015.5
20260510050152 51 76 5.0 8.0 0.00 0.00 0.00 46 1015.5
20260510045653 52 59 5.0 9.0 0.00 0.00 0.00 47 1015.4
20260510045152 52 48 4.0 9.0 0.00 0.00 0.00 50 1015.3
20260510044652 51 69 3.0 8.0 0.00 0.00 0.00 49 1015.1
20260510044152 51 74 5.0 8.0 0.00 0.00 0.00 52 1015.1
20260510043652 51 74 7.0 8.0 0.00 0.00 0.00 53 1015.0
20260510043152 52 52 4.0 8.0 0.00 0.00 0.00 56 1015.1
20260510042652 51 79 8.0 8.0 0.00 0.00 0.00 58 1014.9
20260510042152 52 67 3.0 8.0 0.00 0.00 0.00 59 1015.1
20260510041152 52 85 7.0 8.0 0.00 0.00 0.00 57 1015.1
20260510040652 52 71 5.0 8.0 0.00 0.00 0.00 58 1015.1
20260510040152 52 50 4.0 7.0 0.00 0.00 0.00 63 1015.0
20260510035652 52 61 5.0 7.0 0.00 0.00 0.00 61 1014.3
20260510035152 53 51 6.0 7.0 0.00 0.00 0.00 63 1014.7
20260510034152 54 74 3.0 7.0 0.00 0.00 0.00 65 1014.6
20260510033651 55 55 4.0 6.0 0.00 0.00 0.00 67 1014.9
20260510033151 55 65 4.0 6.0 0.00 0.00 0.00 67 1014.8
20260510032651 56 48 4.0 7.0 0.00 0.00 0.00 67 1014.7
20260510032151 56 69 3.0 7.0 0.00 0.00 0.00 67 1014.4
20260510031151 57 53 5.0 5.0 0.00 0.00 0.00 68 1014.6
20260510030652 58 51 3.0 5.0 0.00 0.00 0.00 68 1014.6
20260510030152 58 51 3.0 5.0 0.00 0.00 0.00 67 1014.5
20260510025651 59 62 3.0 5.0 0.00 0.00 0.00 66 1013.8
20260510025151 60 54 3.0 5.0 0.00 0.00 0.00 65 1013.9
20260510024651 61 61 3.0 5.0 0.00 0.00 0.00 64 1014.2
20260510024151 61 63 4.0 5.0 0.00 0.00 0.00 63 1014.2
20260510023151 63 48 4.0 4.0 0.00 0.00 0.00 60 1014.5
20260510022151 65 236 0.0 0.0 0.00 0.00 0.00 58 1014.6
20260510021650 66 236 0.0 0.0 0.00 0.00 0.00 56 1014.5
20260510021150 67 236 0.0 0.0 0.00 0.00 0.00 55 1014.8
20260510020651 67 236 0.0 0.0 0.00 0.00 0.00 55 1014.8
20260510020150 68 236 0.0 0.0 0.00 0.00 0.00 54 1014.7
20260510015151 69 236 0.0 4.0 0.00 0.00 0.00 54 1013.5
20260510014650 69 236 3.0 4.0 0.00 0.00 0.00 53 1013.5
20260510014150 70 261 0.0 3.0 0.00 0.00 0.00 54 1013.6
20260510013650 70 265 1.0 7.0 0.00 0.00 0.00 52 1013.6
20260510013150 70 255 0.0 7.0 0.00 0.00 0.00 52 1013.7
20260510012650 71 242 0.0 8.0 0.00 0.00 0.00 52 1013.6
20260510012150 71 242 3.0 8.0 0.00 0.00 0.00 51 1013.6
20260510011150 72 229 1.0 6.0 0.00 0.00 0.00 51 1013.8
20260510010650 72 234 1.0 9.0 0.00 0.00 0.00 49 1013.7
20260510010150 73 258 4.0 9.0 0.00 0.00 0.00 50 1013.9
20260510005650 74 232 1.0 8.0 0.00 0.00 0.00 49 1013.7
20260510005149 74 224 5.0 8.0 0.00 0.00 0.00 49 1013.7
20260510004650 75 202 2.0 8.0 0.00 0.00 0.00 48 1013.6
20260510004149 75 227 0.0 8.0 0.00 0.00 0.00 47 1013.7
20260510003650 76 224 4.0 8.0 0.00 0.00 0.00 48 1013.8
20260510002149 77 224 3.0 9.0 0.00 0.00 0.00 46 1013.8
20260510001649 77 237 0.0 9.0 0.00 0.00 0.00 45 1013.7
20260510001150 77 227 4.0 11.0 0.00 0.00 0.00 46 1013.7
20260510000649 78 249 5.0 11.0 0.00 0.00 0.00 45 1013.9
20260509235650 78 253 9.0 11.0 0.00 0.00 0.00 44 1013.6
20260509235149 78 243 3.0 11.0 0.00 0.00 0.00 44 1013.6
20260509234649 79 232 4.0 9.0 0.00 0.00 0.00 44 1013.8
20260509233649 80 250 2.0 7.0 0.00 0.00 0.00 43 1013.9
20260509233149 80 234 0.0 10.0 0.00 0.00 0.00 43 1013.9
20260509232149 81 244 9.0 10.0 0.00 0.00 0.00 42 1014.1
20260509231649 81 227 0.0 9.0 0.00 0.00 0.00 43 1014.1
20260509230149 81 260 6.0 11.0 0.00 0.00 0.00 43 1014.1
20260509225648 81 239 0.0 10.0 0.00 0.00 0.00 42 1014.1
20260509224648 81 211 3.0 9.0 0.00 0.00 0.00 43 1014.3
20260509224148 81 184 2.0 11.0 0.00 0.00 0.00 41 1014.3
20260509223648 82 248 0.0 11.0 0.00 0.00 0.00 40 1014.4
20260509223149 82 227 2.0 11.0 0.00 0.00 0.00 40 1014.4
20260509222648 83 225 2.0 11.0 0.00 0.00 0.00 39 1014.6
20260509222148 83 315 2.0 10.0 0.00 0.00 0.00 40 1014.7
20260509221648 83 232 1.0 10.0 0.00 0.00 0.00 37 1014.5
20260509221148 83 231 3.0 11.0 0.00 0.00 0.00 37 1014.5
20260509220648 83 347 2.0 11.0 0.00 0.00 0.00 36 1014.5
20260509220148 84 234 1.0 9.0 0.00 0.00 0.00 37 1014.7
20260509215148 84 252 4.0 10.0 0.00 0.00 0.00 32 1014.7
20260509214648 84 232 1.0 10.0 0.00 0.00 0.00 33 1014.6
20260509214148 84 235 2.0 9.0 0.00 0.00 0.00 32 1014.6
20260509213148 84 227 2.0 11.0 0.00 0.00 0.00 31 1014.6
20260509212648 84 188 2.0 11.0 0.00 0.00 0.00 31 1014.7
20260509212147 85 254 1.0 8.0 0.00 0.00 0.00 33 1015.1
20260509211648 84 319 2.0 8.0 0.00 0.00 0.00 31 1014.8
20260509210148 84 229 9.0 12.0 0.00 0.00 0.00 30 1015.0
20260509205648 84 220 7.0 11.0 0.00 0.00 0.00 31 1015.0
20260509205147 84 200 4.0 10.0 0.00 0.00 0.00 30 1015.1
20260509204647 84 224 5.0 10.0 0.00 0.00 0.00 32 1015.1
20260509204148 84 193 2.0 10.0 0.00 0.00 0.00 29 1015.2
20260509203647 84 338 3.0 10.0 0.00 0.00 0.00 29 1015.2
20260509203147 84 242 3.0 10.0 0.00 0.00 0.00 27 1015.2
20260509202647 84 234 2.0 11.0 0.00 0.00 0.00 30 1015.2
20260509202147 85 237 5.0 11.0 0.00 0.00 0.00 28 1015.4
20260509201647 85 290 5.0 10.0 0.00 0.00 0.00 27 1015.4
20260509200647 85 235 2.0 10.0 0.00 0.00 0.00 30 1015.5
20260509200147 85 251 3.0 10.0 0.00 0.00 0.00 29 1015.5
20260509195647 85 244 0.0 9.0 0.00 0.00 0.00 29 1015.4
20260509193146 83 284 2.0 8.0 0.00 0.00 0.00 31 1015.3
20260509192647 83 235 4.0 7.0 0.00 0.00 0.00 30 1015.2
20260509192146 83 244 0.0 9.0 0.00 0.00 0.00 30 1015.4
20260509191646 83 232 3.0 9.0 0.00 0.00 0.00 31 1015.5
20260509191147 83 257 2.0 6.0 0.00 0.00 0.00 30 1015.5
20260509190647 83 311 2.0 10.0 0.00 0.00 0.00 31 1015.6
20260509185146 83 234 3.0 11.0 0.00 0.00 0.00 31 1015.6
20260509184646 83 223 2.0 11.0 0.00 0.00 0.00 32 1015.6
20260509184146 82 254 5.0 9.0 0.00 0.00 0.00 30 1015.6
20260509183646 82 250 7.0 9.0 0.00 0.00 0.00 29 1015.6
20260509183146 82 250 4.0 9.0 0.00 0.00 0.00 27 1015.6
20260509182646 83 254 0.0 7.0 0.00 0.00 0.00 27 1015.6
20260509182146 82 202 3.0 10.0 0.00 0.00 0.00 29 1015.7
20260509181146 82 243 5.0 8.0 0.00 0.00 0.00 30 1015.9
20260509180646 82 232 3.0 8.0 0.00 0.00 0.00 29 1015.9
20260509175645 81 251 5.0 11.0 0.00 0.00 0.00 31 1015.9
20260509175145 81 273 7.0 11.0 0.00 0.00 0.00 31 1015.9
20260509174645 80 242 5.0 11.0 0.00 0.00 0.00 30 1015.7
20260509174145 81 242 4.0 8.0 0.00 0.00 0.00 29 1015.9
20260509173645 81 278 6.0 8.0 0.00 0.00 0.00 31 1015.9
20260509173145 80 5 0.0 7.0 0.00 0.00 0.00 32 1015.7
20260509172646 80 265 4.0 7.0 0.00 0.00 0.00 29 1015.7
20260509172145 80 226 3.0 7.0 0.00 0.00 0.00 30 1015.7
20260509171645 80 225 6.0 7.0 0.00 0.00 0.00 29 1015.6
20260509171145 79 184 0.0 6.0 0.00 0.00 0.00 32 1015.5
20260509170645 79 210 1.0 6.0 0.00 0.00 0.00 33 1015.4
20260509170145 79 190 0.0 5.0 0.00 0.00 0.00 32 1015.4
20260509165145 78 188 2.0 6.0 0.00 0.00 0.00 33 1015.6
20260509164145 77 217 1.0 6.0 0.00 0.00 0.00 36 1015.4
20260509163645 77 252 0.0 7.0 0.00 0.00 0.00 34 1015.3
20260509162644 76 225 2.0 5.0 0.00 0.00 0.00 37 1015.3
20260509161645 75 240 1.0 11.0 0.00 0.00 0.00 38 1015.1
20260509160645 74 263 0.0 6.0 0.00 0.00 0.00 37 1015.0
20260509160144 74 201 0.0 0.0 0.00 0.00 0.00 40 1014.9
20260509155645 73 201 0.0 0.0 0.00 0.00 0.00 40 1015.1
20260509154644 72 91 0.0 0.0 0.00 0.00 0.00 40 1015.1
20260509153644 70 84 0.0 0.0 0.00 0.00 0.00 48 1015.0
20260509152644 68 84 0.0 0.0 0.00 0.00 0.00 48 1014.8
20260509152144 68 84 0.0 0.0 0.00 0.00 0.00 52 1014.8
20260509151644 67 83 0.0 0.0 0.00 0.00 0.00 50 1014.6
20260509151144 66 82 0.0 0.0 0.00 0.00 0.00 56 1014.6
20260509150644 66 82 0.0 0.0 0.00 0.00 0.00 60 1014.7
20260509150143 65 82 0.0 2.0 0.00 0.00 0.00 62 1014.5
20260509145644 64 82 0.0 3.0 0.00 0.00 0.00 59 1015.1
20260509144644 61 94 2.0 5.0 0.00 0.00 0.00 61 1015.0
20260509144144 60 88 1.0 7.0 0.00 0.00 0.00 62 1014.8
20260509143643 59 84 5.0 7.0 0.00 0.00 0.00 63 1014.7
20260509143144 58 78 1.0 7.0 0.00 0.00 0.00 63 1014.5
20260509142643 57 75 3.0 7.0 0.00 0.00 0.00 65 1014.5
20260509141643 55 50 5.0 7.0 0.00 0.00 0.00 68 1014.2
20260509141143 54 70 3.0 7.0 0.00 0.00 0.00 68 1014.0
20260509140643 53 67 2.0 7.0 0.00 0.00 0.00 69 1013.9
20260509135643 51 64 4.0 7.0 0.00 0.00 0.00 72 1014.2
20260509135143 50 74 3.0 8.0 0.00 0.00 0.00 72 1014.1
20260509134143 48 66 4.0 7.0 0.00 0.00 0.00 73 1014.0
20260509133642 48 76 5.0 7.0 0.00 0.00 0.00 73 1013.9
20260509133142 47 71 4.0 8.0 0.00 0.00 0.00 72 1013.5
20260509132643 47 59 4.0 8.0 0.00 0.00 0.00 72 1013.6
20260509132142 47 38 4.0 8.0 0.00 0.00 0.00 71 1013.6
20260509131643 47 66 5.0 8.0 0.00 0.00 0.00 71 1013.6
20260509131142 47 58 4.0 9.0 0.00 0.00 0.00 69 1013.5
20260509130643 48 55 5.0 9.0 0.00 0.00 0.00 68 1013.8
20260509125642 48 76 3.0 8.0 0.00 0.00 0.00 67 1014.3
20260509125142 48 42 4.0 8.0 0.00 0.00 0.00 68 1014.4
20260509124142 48 70 5.0 8.0 0.00 0.00 0.00 67 1014.4
20260509123642 48 31 4.0 7.0 0.00 0.00 0.00 67 1014.3
20260509123142 48 53 4.0 7.0 0.00 0.00 0.00 68 1014.3
20260509122642 48 57 5.0 7.0 0.00 0.00 0.00 68 1014.3
20260509122142 47 53 5.0 7.0 0.00 0.00 0.00 68 1014.0
20260509121642 47 57 4.0 8.0 0.00 0.00 0.00 67 1014.1
20260509120641 47 81 4.0 7.0 0.00 0.00 0.00 69 1014.0
20260509120141 47 69 5.0 7.0 0.00 0.00 0.00 68 1014.2
20260509115642 47 73 4.0 9.0 0.00 0.00 0.00 70 1014.7
20260509115141 47 30 5.0 9.0 0.00 0.00 0.00 70 1014.8
20260509114641 47 75 5.0 8.0 0.00 0.00 0.00 71 1014.8
20260509113641 47 74 7.0 7.0 0.00 0.00 0.00 71 1014.9
20260509113141 47 62 3.0 6.0 0.00 0.00 0.00 71 1014.9
20260509112642 47 58 5.0 6.0 0.00 0.00 0.00 69 1014.9
20260509112141 47 32 6.0 7.0 0.00 0.00 0.00 69 1014.9
20260509111641 47 58 4.0 8.0 0.00 0.00 0.00 69 1014.9
20260509111141 47 29 6.0 8.0 0.00 0.00 0.00 69 1014.8
20260509110641 47 59 4.0 8.0 0.00 0.00 0.00 70 1014.8
20260509110141 47 38 5.0 8.0 0.00 0.00 0.00 69 1014.8
20260509105641 47 66 5.0 8.0 0.00 0.00 0.00 69 1015.2
20260509105141 47 35 4.0 8.0 0.00 0.00 0.00 70 1015.3
20260509104641 47 56 5.0 8.0 0.00 0.00 0.00 68 1015.3
20260509104141 48 48 4.0 8.0 0.00 0.00 0.00 68 1015.6
20260509103641 48 78 5.0 8.0 0.00 0.00 0.00 68 1015.5
20260509103141 48 49 5.0 7.0 0.00 0.00 0.00 68 1015.5
20260509102640 48 74 4.0 7.0 0.00 0.00 0.00 69 1015.6
20260509102141 48 69 5.0 7.0 0.00 0.00 0.00 69 1015.7
20260509101640 48 92 4.0 9.0 0.00 0.00 0.00 69 1015.8
20260509101141 48 48 4.0 9.0 0.00 0.00 0.00 70 1015.7
20260509100641 47 74 5.0 8.0 0.00 0.00 0.00 70 1015.6
20260509100141 47 59 4.0 7.0 0.00 0.00 0.00 71 1015.6
20260509095640 47 65 5.0 8.0 0.00 0.00 0.00 71 1015.8
20260509095140 47 51 5.0 8.0 0.00 0.00 0.00 70 1015.7
20260509094640 47 76 4.0 8.0 0.00 0.00 0.00 69 1015.8
20260509094140 48 51 6.0 7.0 0.00 0.00 0.00 70 1015.8
20260509093640 48 30 4.0 7.0 0.00 0.00 0.00 70 1015.7
20260509092640 48 50 6.0 8.0 0.00 0.00 0.00 70 1015.9
20260509092140 48 67 6.0 8.0 0.00 0.00 0.00 70 1015.9
20260509091640 48 71 8.0 8.0 0.00 0.00 0.00 70 1016.0
20260509091140 48 34 5.0 8.0 0.00 0.00 0.00 70 1016.0
20260509090640 47 74 4.0 8.0 0.00 0.00 0.00 71 1016.0
20260509090139 47 82 4.0 8.0 0.00 0.00 0.00 71 1016.0
20260509085640 47 62 4.0 7.0 0.00 0.00 0.00 71 1016.1
20260509085140 48 67 3.0 9.0 0.00 0.00 0.00 72 1016.2
20260509084140 47 74 7.0 9.0 0.00 0.00 0.00 73 1016.3
20260509083640 47 54 5.0 9.0 0.00 0.00 0.00 73 1016.3
20260509083140 48 55 4.0 7.0 0.00 0.00 0.00 73 1016.4
20260509082639 48 51 4.0 7.0 0.00 0.00 0.00 72 1016.3
20260509082139 48 52 4.0 7.0 0.00 0.00 0.00 71 1016.4
20260509081639 48 73 4.0 6.0 0.00 0.00 0.00 71 1016.3
20260509081139 48 70 3.0 8.0 0.00 0.00 0.00 71 1016.3
20260509080139 48 69 5.0 7.0 0.00 0.00 0.00 71 1016.5
20260509075639 48 76 5.0 8.0 0.00 0.00 0.00 71 1016.5
20260509075139 48 78 7.0 8.0 0.00 0.00 0.00 72 1016.5
20260509074639 48 89 5.0 7.0 0.00 0.00 0.00 72 1016.6
20260509073639 49 67 4.0 8.0 0.00 0.00 0.00 72 1016.7
20260509073139 49 74 3.0 7.0 0.00 0.00 0.00 73 1016.7
20260509072638 49 63 5.0 9.0 0.00 0.00 0.00 73 1016.7
20260509072138 49 46 5.0 9.0 0.00 0.00 0.00 73 1016.6
20260509071638 49 37 6.0 9.0 0.00 0.00 0.00 74 1016.7
20260509071139 49 49 4.0 9.0 0.00 0.00 0.00 74 1016.7
20260509070139 48 45 5.0 6.0 0.00 0.00 0.00 74 1016.8
20260509065639 48 48 5.0 6.0 0.00 0.00 0.00 74 1016.8